Weather History for KTOL - October, 2012

Change the Weather History Date:

Wednesday, October 24, 2012

  Actual Average Record
Temperature  
Mean Temperature 69 °F 50 °F  
Max Temperature 77 °F 60 °F 82 °F (1963)
Min Temperature 60 °F 40 °F 18 °F (1969)
Degree Days  
Heating Degree Days 0 15  
Month to date heating degree days 290 286  
Since 1 July heating degree days 438 410  
Cooling Degree Days 4 0  
Month to date cooling degree days 5 8  
Year to date cooling degree days 997 792  
Growing Degree Days 18 (Base 50)    
Moisture  
Dew Point 56 °F    
Average Humidity 70    
Maximum Humidity 90    
Minimum Humidity 50    
Precipitation  
Precipitation 0.04 in 0.08 in 0.86 in (2001)
Month to date precipitation 1.63 2.03  
Year to date precipitation 26.77 28.13  
Snow  
Snow 0.00 in 0.00 in - ()
Month to date snowfall 0.0 0.1  
Since 1 July snowfall 0.0 0.1  
Since 1 September snowfall 0.0 0.1  
Snow Depth 0.00 in    
Sea Level Pressure  
Sea Level Pressure 30.01 in    
Wind  
Wind Speed 6 mph (SSW)    
Max Wind Speed 16 mph    
Max Gust Speed 22 mph    
Visibility 9 miles    
Events Rain    
T = Trace of Precipitation, MM = Missing Value Source: NWS Daily Summary

Daily Weather History Graph

Daily Weather History Graph

Search for Another Location

Airport or City:

Trip Planner

Search our weather history database for the weather conditions in past years. The results will help you decide how hot, cold, wet, or windy it might be!

Date:

Astronomy

Oct. 24, 2012 Rise Set
Actual Time 7:58 AM EDT 6:39 PM EDT
Civil Twilight 7:29 AM EDT 7:08 PM EDT
Nautical Twilight 6:57 AM EDT 7:40 PM EDT
Astronomical Twilight 6:25 AM EDT 8:12 PM EDT
Moon 3:58 PM EDT (10/24) 2:48 AM EDT (10/24)
Length of Visible Light 11h 38m
Length of Day
10h 41m
Waxing Gibbous, 76% of the Moon is Illuminated
Oct 24
Waxing Gibbous
Oct 29
Full
Nov 6
Last Quarter
Nov 13
New
Nov 20
First Quarter

Hourly Weather History & Observations

Time (EDT) Temp. Dew Point Humidity Pressure Visibility Wind Dir Wind Speed Gust Speed Precip Events Conditions
12:52 AM 61.0 °F 57.0 °F 87% 30.02 in 10.0 mi SSW 6.9 mph - N/A   Overcast
1:52 AM 61.0 °F 57.9 °F 90% 30.02 in 6.0 mi Calm Calm - 0.00 in Rain Light Rain
2:52 AM 60.1 °F 57.9 °F 93% 30.02 in 5.0 mi Calm Calm - 0.02 in   Overcast
3:52 AM 61.0 °F 57.0 °F 87% 30.01 in 9.0 mi SSE 3.5 mph - N/A   Overcast
4:52 AM 60.1 °F 57.9 °F 93% 30.01 in 8.0 mi Variable 3.5 mph - 0.02 in Rain Light Rain
5:52 AM 60.1 °F 57.0 °F 90% 30.01 in 10.0 mi South 3.5 mph - 0.00 in   Overcast
6:52 AM 60.1 °F 55.0 °F 83% 30.02 in 10.0 mi South 3.5 mph - N/A   Scattered Clouds
7:52 AM 61.0 °F 54.0 °F 78% 30.04 in 10.0 mi SSW 4.6 mph - N/A   Overcast
8:52 AM 62.1 °F 53.1 °F 72% 30.04 in 10.0 mi SSW 6.9 mph - N/A   Mostly Cloudy
9:52 AM 64.9 °F 54.0 °F 68% 30.04 in 10.0 mi SSW 6.9 mph - N/A   Clear
10:52 AM 68.0 °F 53.6 °F 60% 30.04 in 10.0 mi SSW 9.2 mph - N/A   Clear
11:52 AM 71.6 °F 53.6 °F 53% 30.03 in 10.0 mi WSW 10.4 mph - N/A   Clear
12:52 PM 73.0 °F 55.0 °F 53% 30.02 in 10.0 mi WSW 10.4 mph - N/A   Clear
1:52 PM 75.0 °F 55.9 °F 51% 30.00 in 10.0 mi SSW 6.9 mph - N/A   Clear
2:52 PM 75.9 °F 57.0 °F 52% 29.99 in 10.0 mi SSW 10.4 mph 21.9 mph N/A   Clear
3:52 PM 75.9 °F 57.0 °F 52% 29.97 in 10.0 mi South 11.5 mph 19.6 mph N/A   Clear
4:52 PM 77.0 °F 57.0 °F 50% 29.97 in 10.0 mi SSW 12.7 mph 21.9 mph N/A   Clear
5:52 PM 75.9 °F 57.9 °F 54% 29.97 in 10.0 mi SSW 9.2 mph - N/A   Clear
6:52 PM 73.0 °F 57.0 °F 57% 29.98 in 10.0 mi SSW 3.5 mph - N/A   Clear
7:52 PM 69.1 °F 57.0 °F 65% 29.99 in 10.0 mi South 3.5 mph - N/A   Clear
8:52 PM 66.2 °F 57.2 °F 73% 30.00 in 10.0 mi South 4.6 mph - N/A   Clear
9:52 PM 66.9 °F 55.0 °F 66% 29.99 in 10.0 mi South 4.6 mph - N/A   Clear
10:52 PM 64.0 °F 53.1 °F 67% 30.00 in 10.0 mi South 5.8 mph - N/A   Clear
11:52 PM 64.9 °F 52.0 °F 63% 29.99 in 10.0 mi South 6.9 mph - N/A   Clear